Simultaneous Nadir Overpasses (SNOs) Predictions

Prediction of SNOs between GOES-16 and METOP-C Satellite Orbit:

Table of predicted SNOs for the next 14.0 days since TLE Epoch: 12/17/2022
Index Date Time (GOES-16) GOES-16 Lat,Lon METOP-C Lat,Lon Distance(km) Time Diff (sec)
1 12/18/2022 14:41:28 -0.04, -75.21 0.42, -77.36 244.19 80
2 12/19/2022 14:18:09 -0.04, -75.21 -0.69, -72.36 325.56 80
3 12/21/2022 02:39:48 0.04, -75.20 -0.35, -76.95 198.67 80
4 12/22/2022 02:16:29 0.04, -75.21 0.76, -71.95 371.01 80
5 12/23/2022 14:38:01 -0.03, -75.23 0.26, -76.51 145.77 80
6 12/24/2022 14:14:41 -0.03, -75.24 -0.86, -71.51 424.17 80
7 12/26/2022 02:36:21 0.03, -75.23 -0.19, -76.10 99.65 80
8 12/27/2022 02:13:01 0.03, -75.24 0.93, -71.11 470.73 80
9 12/28/2022 14:34:34 -0.02, -75.28 0.07, -75.67 44.59 80
10 12/31/2022 02:30:13 0.02, -75.30 0.00, -75.26 5.21 80
